Dewpoint
32 25 26 21 24 20 18 13 14 17 21 21 20 19 18 18 22 22 21 18 19 19 23 24 24 24 22 24 24 26 27 29 31 34 34 34 35 36 36 36 35 35 35 36
27 26 23 23 25 22 20 16 16 19 21 17 17 17 19 19 21 24 24 21 19 19 19 22 24 23 22 21 24 27 28 31 31 34 34 35 34 36 36 37 35 35 35 36
21 24 24 22 20 19 18 19 15 15 19 19 18 19 17 18 19 21 22 24 22 20 19 20 22 24 25 21 23 27 29 31 32 33 36 36 35 38 37 37 37 36 35 37
25 24 21 23 20 19 20 20 20 20 20 16 16 13 14 16 18 19 24 22 22 21 22 20 22 24 25 24 25 27 29 31 31 34 34 34 34 35 36 37 37 38 36 36
27 23 23 23 21 19 22 25 22 24 21 19 20 19 24 14 14 16 18 21 22 22 22 22 24 25 26 27 28 28 29 31 32 33 34 35 35 37 38 38 38 38 38 36
23 23 22 20 21 21 21 21 22 24 23 23 17 11 20 15 17 15 16 18 21 21 21 23 24 26 27 29 32 32 29 31 33 35 36 35 36 37 38 38 38 40 39 39
22 21 18 21 20 24 23 22 25 26 25 20 17 15 15 18 19 20 19 16 18 20 23 24 25 27 30 32 35 35 34 31 33 35 36 38 37 38 37 38 39 38 39 38
21 22 21 20 19 19 19 21 20 16 16 16 19 16 21 16 16 16 17 20 21 21 24 28 29 31 32 33 36 37 34 34 33 33 35 37 39 40 40 39 39 39 38 38
16 21 16 14 15 18 22 23 24 19 16 19 22 17 17 16 14 19 23 23 24 24 26 30 32 33 34 35 36 36 37 35 35 35 35 37 38 39 39 40 40 40 38 38
20 20 20 17 18 21 21 19 22 24 24 18 17 22 17 19 14 19 20 22 25 27 27 29 28 30 33 33 34 37 36 36 37 36 36 35 37 37 39 39 39 40 39 38
22 20 22 22 19 20 19 18 18 19 18 21 19 21 17 14 16 16 17 21 23 25 28 28 28 27 30 31 32 34 34 35 34 37 36 36 36 37 37 38 39 39 39 39
26 24 20 20 17 17 18 17 17 25 23 19 22 22 13 13 15 19 18 20 21 24 27 27 27 27 27 30 32 32 32 32 33 34 34 35 36 36 36 36 37 38 38 38
24 21 20 22 21 20 17 17 17 22 25 25 26 27 13 16 18 20 24 26 24 22 25 26 27 25 26 28 28 28 30 31 32 32 32 33 35 35 34 34 35 36 36 37
33 26 24 23 24 24 20 21 17 18 24 26 23 21 22 25 26 25 25 25 24 24 25 26 28 29 28 29 26 25 25 26 30 31 31 32 33 34 35 34 34 35 34 34
28 24 22 21 22 22 22 23 22 18 17 18 20 22 22 22 23 23 24 24 25 26 27 28 29 30 29 29 27 24 25 27 28 28 30 32 33 34 35 36 35 35 34 33
27 25 24 22 21 21 21 22 22 22 19 17 17 18 20 22 24 25 24 25 26 27 28 28 30 30 29 29 28 26 28 29 29 29 30 31 33 33 35 35 36 35 35 34
28 27 25 22 22 22 22 22 22 22 22 21 20 21 23 26 27 26 25 27 27 27 28 29 30 31 31 30 27 27 29 28 29 29 29 31 32 33 34 36 36 35 35 35
28 27 32 29 23 22 25 25 24 25 25 24 24 26 28 27 27 28 28 27 26 27 27 29 30 32 32 31 29 30 29 28 30 30 30 30 31 32 34 34 35 35 36 35
29 33 34 30 26 25 25 27 24 23 24 26 25 25 27 28 27 25 27 28 27 26 29 30 31 31 34 33 32 31 30 29 31 31 32 31 31 31 33 34 35 36 36 36
30 29 33 31 28 26 28 28 27 26 23 28 28 27 28 29 25 29 26 25 27 29 29 31 32 31 31 33 34 33 33 32 31 32 34 33 33 32 33 35 36 37 37 36
28 29 30 32 30 32 31 27 28 23 27 29 29 29 29 28 29 30 29 28 28 29 31 31 32 32 32 33 36 34 34 34 35 35 36 35 34 34 34 35 37 37 38 38
28 30 31 30 29 28 32 27 24 28 32 30 27 28 31 31 32 31 31 32 33 33 34 34 31 33 34 35 37 36 36 36 38 38 36 36 35 35 34 36 37 38 37 37
30 35 34 32 30 34 29 30 28 32 33 34 31 32 30 31 32 32 33 33 32 32 32 33 34 34 36 37 38 37 37 38 40 38 37 36 37 37 38 37 37 38 37 37
30 33 33 33 34 34 32 31 33 33 32 34 34 34 33 33 34 33 33 33 33 33 33 33 33 34 35 38 38 38 37 39 40 39 37 38 38 37 36 35 36 36 37 38
31 31 29 30 31 32 34 33 33 34 34 34 34 34 34 34 34 34 33 34 34 34 34 34 34 35 36 37 39 40 40 40 39 39 38 36 36 36 35 35 37 37 37 38
35 34 31 30 32 30 31 35 35 34 34 35 34 34 35 35 37 38 38 38 36 35 35 35 35 36 38 38 38 39 41 41 39 38 36 35 35 36 36 36 37 41 42 42
Lifted_Index
8 8 7 8 8 7 6 5 5 6 6 5 4 4 5 6 6 6 6 7 8 9 11 12 13 14 15 15 16 16 16 16 16 16 16 16 17 17 18 18 18 18 18 19
8 8 8 9 8 7 7 6 5 6 6 6 5 4 5 5 6 6 6 7 8 9 10 11 12 13 14 14 15 15 16 16 16 16 16 17 17 17 18 18 18 18 18 18
9 9 9 9 8 7 7 6 6 6 6 6 5 4 4 5 6 6 7 7 8 9 10 11 11 12 13 13 14 14 15 15 15 16 16 16 16 16 17 17 17 18 18 18
9 10 9 9 8 8 7 7 7 6 5 5 4 4 4 5 6 6 7 7 8 9 10 11 11 12 12 13 13 14 14 14 15 15 15 15 15 15 16 16 17 17 18 18
9 10 9 9 9 8 8 8 8 6 5 4 4 4 5 6 6 6 7 8 8 9 10 10 11 12 12 12 13 13 13 14 14 15 15 15 15 15 15 16 16 17 17 17
10 10 10 9 9 9 9 7 6 5 4 3 4 4 5 6 6 7 7 8 8 9 9 10 11 11 12 12 12 12 12 13 14 15 15 15 15 15 15 16 16 16 16 16
8 9 10 10 9 9 8 6 4 2 2 2 3 4 4 6 7 7 8 8 8 9 10 10 11 11 11 11 12 12 12 12 13 14 14 14 14 14 15 15 16 16 16 16
6 7 9 10 9 8 7 5 3 2 1 2 3 4 5 6 7 7 8 8 9 9 10 10 11 11 11 11 12 12 11 12 12 13 13 14 14 14 14 15 16 16 16 16
5 6 8 10 10 9 7 6 5 3 2 2 3 4 5 6 7 7 8 9 9 9 10 10 11 11 11 11 12 12 12 12 12 12 13 13 13 13 14 14 15 16 16 16
6 6 7 9 9 9 8 7 5 4 2 1 2 4 5 6 7 8 8 9 9 10 10 11 11 11 11 11 12 12 12 12 12 12 13 13 13 13 13 14 14 15 15 16
8 7 6 7 8 8 7 7 6 4 3 2 2 4 6 7 8 8 9 9 10 10 11 11 11 11 11 11 11 12 12 12 12 13 13 13 13 13 13 13 14 14 15 15
8 7 5 6 7 8 7 7 6 5 4 3 3 4 6 8 8 9 9 9 10 10 11 11 11 11 11 11 11 11 11 12 12 13 13 12 12 13 13 13 14 14 14 14
8 6 4 4 6 7 7 7 7 6 5 4 3 4 6 8 8 9 9 9 9 10 10 11 11 11 11 11 11 11 11 11 12 12 12 12 12 12 12 13 14 14 14 14
9 7 5 4 5 6 6 6 6 6 5 4 3 4 6 7 7 8 9 9 9 10 10 11 11 11 11 11 11 11 11 12 12 12 12 12 12 12 12 12 13 14 14 14
9 7 6 6 6 6 6 5 5 5 4 4 4 4 6 6 7 8 8 8 8 9 10 11 11 11 11 11 11 11 11 12 12 12 11 11 11 11 12 12 13 13 14 14
8 7 6 6 6 6 5 5 5 5 4 4 4 5 6 6 7 7 7 7 7 8 9 10 11 11 11 11 11 11 11 11 11 11 11 10 10 11 11 12 12 13 13 13
8 7 6 6 6 5 5 5 5 5 5 5 5 5 6 6 7 7 7 6 6 7 8 9 10 11 11 11 11 11 11 11 10 10 10 10 9 10 10 11 11 12 12 12
8 7 6 5 5 5 5 5 5 5 5 5 5 5 5 6 7 7 6 6 6 7 8 9 10 10 11 11 11 11 11 10 10 9 9 9 9 9 9 10 10 10 11 11
9 8 6 5 4 5 6 6 6 5 5 5 5 5 5 6 6 6 6 6 7 7 8 9 10 10 10 11 11 11 10 10 9 9 9 9 9 9 9 9 9 10 10 10
8 7 5 4 4 5 6 6 6 5 4 4 5 4 5 5 5 6 7 7 7 7 7 8 9 10 10 10 10 10 10 10 9 9 9 9 10 10 10 10 10 10 9 9
5 5 5 4 4 5 6 6 5 4 4 5 5 5 5 5 5 6 7 7 7 7 7 8 8 9 9 10 10 9 9 9 9 9 9 9 10 10 10 10 10 10 10 10
4 4 4 4 4 5 6 6 5 4 5 5 5 5 5 5 6 7 7 7 7 7 6 7 7 8 9 9 9 9 9 9 9 9 9 9 9 10 10 10 10 9 9 9
5 4 4 4 5 5 5 5 5 5 5 5 5 5 5 6 6 7 7 7 7 6 6 6 7 7 8 8 8 8 8 8 9 9 9 9 9 10 10 10 9 9 9 9
5 5 4 4 5 5 5 5 5 5 5 5 5 5 5 5 6 6 6 7 7 6 6 6 7 7 7 7 8 8 8 8 8 8 9 9 9 10 10 10 9 9 9 10
4 4 4 4 4 5 5 5 5 5 5 5 5 5 5 5 6 6 6 6 7 6 6 7 7 7 7 7 8 8 8 8 8 8 8 8 9 10 10 10 9 9 10 10
4 4 4 4 4 4 4 5 5 5 5 6 6 6 6 6 6 6 6 6 6 6 7 7 8 8 7 8 8 8 8 7 7 7 7 8 9 9 10 9 9 9 10 11